Terminal Aerodrome Forecast
Issued by NWS

Home | Current Version | Previous Version | Text Only | Print | Product List | Glossary On
Versions: 1 2 3 4 5 6 7 8 9 10 11 12 13
000
FTUS45 KMSO 041135
TAFSMN
TAF
KSMN 041135Z 0412/0512 VRB06KT P6SM -RA SCT020 OVC050
     FM042200 VRB06KT P6SM -SHRA SCT050 OVC070
     FM050300 04009KT P6SM VCSH SCT035 OVC070
      AMD LTD TO CLD VIS AND WIND=

USA.gov is the U.S. government's official web portal to all federal, state and local government web resources and services.